This is the latest recevied weather packets stored in our database for station/object WA7SB-7. If no packets are shown the sender has not sent any weather packets the latest 10 day(s).
| Time | Temp. | Humidity | Pressure | Rain* | Wind** | Luminosity | Snow |
|---|---|---|---|---|---|---|---|
| 1788505225 | 12.78° C | 96% | 1007.5 hPa | 5.84 mm | - | - | - |
| 1788505160 | 12.78° C | 96% | 1007.5 hPa | 5.84 mm | - | - | - |
| 1788504922 | 12.78° C | 96% | 1007.6 hPa | 5.84 mm | - | - | - |
| 1788504864 | 12.78° C | 96% | 1007.5 hPa | 5.84 mm | - | - | - |
| 1788504626 | 12.78° C | 96% | 1007.5 hPa | 5.84 mm | - | - | - |
| 1788504570 | 12.78° C | 96% | 1007.5 hPa | 5.84 mm | - | - | - |
| 1788504328 | 12.78° C | 96% | 1007.3 hPa | 6.1 mm | - | - | - |
| 1788504256 | 12.78° C | 96% | 1007.4 hPa | 5.84 mm | - | - | - |
| 1788504016 | 12.78° C | 96% | 1007.3 hPa | 5.84 mm | - | - | - |
| 1788503963 | 12.78° C | 96% | 1007.3 hPa | 5.84 mm | - | - | - |
| 1788503723 | 12.78° C | 96% | 1007.3 hPa | 5.33 mm | - | - | - |
| 1788503669 | 12.78° C | 96% | 1007.3 hPa | 5.33 mm | - | - | - |
| 1788503438 | 12.78° C | 96% | 1007.2 hPa | 4.83 mm | - | - | - |
| 1788503367 | 12.78° C | 96% | 1007.3 hPa | 4.83 mm | - | - | - |
| 1788503130 | 12.78° C | 96% | 1007.3 hPa | 4.06 mm | - | - | - |
| 1788503069 | 12.78° C | 96% | 1007.2 hPa | 4.06 mm | - | - | - |
| 1788502832 | 12.78° C | 96% | 1007.3 hPa | 3.3 mm | - | - | - |
| 1788502755 | 12.78° C | 96% | 1007.4 hPa | 3.3 mm | - | - | - |
| 1788502519 | 12.78° C | 96% | 1007.3 hPa | 2.29 mm | - | - | - |
| 1788502461 | 12.78° C | 96% | 1007.3 hPa | 2.29 mm | - | - | - |
| 1788502224 | 12.78° C | 96% | 1007.4 hPa | 1.78 mm | - | - | - |
| 1788502166 | 12.78° C | 96% | 1007.4 hPa | 1.78 mm | - | - | - |
| 1788501930 | 12.78° C | 96% | 1007.4 hPa | 1.27 mm | - | - | - |
| 1788501871 | 12.78° C | 96% | 1007.3 hPa | 1.02 mm | - | - | - |
| 1788501626 | 12.78° C | 96% | 1007.4 hPa | 1.02 mm | - | - | - |
* Rain latest hour (hover to see other rain measurements)
** Current wind speed in m/s (hover to see current wind gust speed)